Location: Fauquembergues
(50.6005°N, 2.0987°E)
Time: 21:03:30
(UTC+00:00)

Cosmos 2322 Rocket - Pass Details

Date: 14 July 2020
Orbit: 832 x 851 km, 71.0° (Epoch: 14 August)

Event Time Altitude Azimuth Distance (km) Brightness Sun altitude
Rises 02:42:07 0° 332° (NNW) 3,405 5.7 -9.2°
Reaches altitude 10° 02:44:40 10° 338° (NNW) 2,470 5.0 -8.9°
Maximum altitude 02:50:08 48° 52° (NE) 1,100 3.4 -8.4°
Drops below altitude 10° 02:55:36 10° 127° (SE) 2,469 4.7 -7.8°
Sets 02:58:09 0° 133° (SE) 3,403 5.3 -7.6°
